| time (UTC) | temp C | wind direction | speed KPH | gust KPH | rain 1hr cm | rain 24hr cm | rain mn cm | humidity % | barometer mb |
| 20260508170058 | 19 | 200 | 4.8 | 16.1 | 0.00 | 0.00 | 0.00 | 38 | 1016.3 |
| 20260508164607 | 19 | 205 | 6.4 | 22.5 | 0.00 | 0.00 | 0.00 | 40 | 1016.6 |
| 20260508163057 | 18 | 187 | 8.0 | 19.3 | 0.00 | 0.00 | 0.00 | 40 | 1017.1 |
| 20260508161604 | 18 | 137 | 4.8 | 17.7 | 0.00 | 0.00 | 0.00 | 37 | 1017.3 |
| 20260508160059 | 18 | 194 | 9.7 | 17.7 | 0.00 | 0.00 | 0.00 | 37 | 1017.7 |
| 20260508154604 | 17 | 138 | 8.0 | 16.1 | 0.00 | 0.00 | 0.00 | 43 | 1017.7 |
| 20260508153057 | 17 | 160 | 3.2 | 12.9 | 0.00 | 0.00 | 0.00 | 44 | 1017.7 |
| 20260508151602 | 16 | 208 | 6.4 | 16.1 | 0.00 | 0.00 | 0.00 | 43 | 1017.7 |
| 20260508150059 | 16 | 207 | 6.4 | 16.1 | 0.00 | 0.00 | 0.00 | 43 | 1017.7 |
| 20260508144558 | 16 | 207 | 4.8 | 14.5 | 0.00 | 0.00 | 0.00 | 46 | 1017.6 |
| 20260508143108 | 14 | 175 | 6.4 | 16.1 | 0.00 | 0.00 | 0.00 | 50 | 1017.7 |
| 20260508141558 | 13 | 157 | 6.4 | 17.7 | 0.00 | 0.00 | 0.00 | 53 | 1017.8 |
| 20260508140108 | 12 | 190 | 4.8 | 11.3 | 0.00 | 0.00 | 0.00 | 59 | 1017.9 |
| 20260508134606 | 11 | 188 | 3.2 | 8.0 | 0.00 | 0.00 | 0.00 | 66 | 1018.0 |
| 20260508133057 | 10 | 158 | 3.2 | 9.7 | 0.00 | 0.00 | 0.00 | 71 | 1018.0 |
| 20260508131600 | 10 | 139 | 3.2 | 8.0 | 0.00 | 0.00 | 0.00 | 76 | 1018.1 |
| 20260508130057 | 8 | 150 | 3.2 | 9.7 | 0.00 | 0.00 | 0.00 | 81 | 1018.3 |
| 20260508124555 | 7 | 153 | 0.0 | 4.8 | 0.00 | 0.00 | 0.00 | 85 | 1018.4 |
| 20260508123058 | 5 | 153 | 0.0 | 4.8 | 0.00 | 0.00 | 0.00 | 90 | 1018.2 |
| 20260508121558 | 5 | 0 | 0.0 | 4.8 | 0.00 | 0.00 | 0.00 | 91 | 1018.2 |
| 20260508114610 | 3 | 225 | 3.2 | 6.4 | 0.00 | 0.00 | 0.00 | 91 | 1018.0 |
| 20260508113106 | 2 | 240 | 3.2 | 6.4 | 0.00 | 0.00 | 0.00 | 92 | 1018.0 |
| 20260508111610 | 2 | 215 | 1.6 | 6.4 | 0.00 | 0.00 | 0.00 | 92 | 1017.9 |
| 20260508110100 | 2 | 211 | 3.2 | 8.0 | 0.00 | 0.00 | 0.00 | 91 | 1017.9 |
| 20260508104601 | 2 | 207 | 3.2 | 6.4 | 0.00 | 0.00 | 0.00 | 91 | 1017.6 |
| 20260508103059 | 2 | 205 | 1.6 | 6.4 | 0.00 | 0.00 | 0.00 | 91 | 1017.4 |
| 20260508101606 | 2 | 205 | 3.2 | 8.0 | 0.00 | 0.00 | 0.00 | 91 | 1017.4 |
| 20260508100101 | 2 | 215 | 1.6 | 6.4 | 0.00 | 0.00 | 0.00 | 90 | 1017.2 |
| 20260508094600 | 2 | 215 | 1.6 | 6.4 | 0.00 | 0.00 | 0.00 | 91 | 1017.2 |
| 20260508093105 | 2 | 0 | 1.6 | 4.8 | 0.00 | 0.00 | 0.00 | 91 | 1017.3 |
| 20260508091611 | 2 | 200 | 1.6 | 8.0 | 0.00 | 0.00 | 0.00 | 91 | 1017.3 |
| 20260508090114 | 2 | 198 | 1.6 | 6.4 | 0.00 | 0.00 | 0.00 | 91 | 1017.2 |
| 20260508084557 | 3 | 209 | 1.6 | 8.0 | 0.00 | 0.00 | 0.00 | 91 | 1017.2 |
| 20260508083108 | 3 | 207 | 3.2 | 6.4 | 0.00 | 0.00 | 0.00 | 90 | 1017.1 |
| 20260508081606 | 3 | 0 | 0.0 | 4.8 | 0.00 | 0.00 | 0.00 | 90 | 1017.0 |
| 20260508074605 | 3 | 193 | 3.2 | 6.4 | 0.00 | 0.00 | 0.00 | 90 | 1017.0 |
| 20260508073056 | 3 | 0 | 1.6 | 4.8 | 0.00 | 0.00 | 0.00 | 90 | 1017.0 |
| 20260508071556 | 3 | 0 | 0.0 | 4.8 | 0.00 | 0.00 | 0.00 | 90 | 1016.8 |
| 20260508070101 | 3 | 205 | 3.2 | 6.4 | 0.00 | 0.00 | 0.00 | 90 | 1016.8 |
| 20260508064559 | 3 | 0 | 0.0 | 0.0 | 0.00 | 0.00 | 0.00 | 90 | 1016.8 |
| 20260508063102 | 3 | 219 | 1.6 | 4.8 | 0.00 | 0.00 | 0.00 | 89 | 1017.1 |
| 20260508061601 | 3 | 207 | 1.6 | 6.4 | 0.00 | 0.00 | 0.00 | 89 | 1017.1 |
| 20260508060057 | 4 | 0 | 0.0 | 4.8 | 0.00 | 0.00 | 0.00 | 89 | 1017.3 |
| 20260508054559 | 4 | 230 | 0.0 | 6.4 | 0.00 | 0.00 | 0.00 | 88 | 1017.2 |
| 20260508053106 | 4 | 198 | 0.0 | 4.8 | 0.00 | 0.00 | 0.00 | 88 | 1017.0 |
| 20260508051607 | 5 | 208 | 1.6 | 4.8 | 0.00 | 0.00 | 0.00 | 88 | 1017.0 |
| 20260508050058 | 5 | 196 | 1.6 | 4.8 | 0.00 | 0.00 | 0.00 | 88 | 1017.0 |
| 20260508044559 | 5 | 230 | 0.0 | 4.8 | 0.00 | 0.00 | 0.00 | 87 | 1017.0 |
| 20260508043056 | 5 | 221 | 0.0 | 4.8 | 0.00 | 0.00 | 0.00 | 86 | 1017.1 |
| 20260508041557 | 5 | 0 | 0.0 | 0.0 | 0.00 | 0.00 | 0.00 | 86 | 1017.1 |
| 20260508040057 | 6 | 0 | 0.0 | 0.0 | 0.00 | 0.00 | 0.00 | 85 | 1017.2 |
| 20260508034601 | 6 | 0 | 0.0 | 0.0 | 0.00 | 0.00 | 0.00 | 84 | 1017.1 |
| 20260508033104 | 6 | 0 | 0.0 | 0.0 | 0.00 | 0.00 | 0.00 | 85 | 1017.0 |
| 20260508031603 | 6 | 0 | 0.0 | 0.0 | 0.00 | 0.00 | 0.00 | 82 | 1017.0 |
| 20260508030057 | 7 | 0 | 0.0 | 0.0 | 0.00 | 0.00 | 0.00 | 81 | 1017.0 |
| 20260508024605 | 7 | 0 | 0.0 | 0.0 | 0.00 | 0.00 | 0.00 | 81 | 1016.8 |
| 20260508023100 | 7 | 0 | 0.0 | 0.0 | 0.00 | 0.00 | 0.00 | 81 | 1016.4 |
| 20260508021616 | 7 | 0 | 0.0 | 0.0 | 0.00 | 0.00 | 0.00 | 77 | 1016.3 |
| 20260508020059 | 8 | 0 | 0.0 | 0.0 | 0.00 | 0.00 | 0.00 | 74 | 1016.1 |
| 20260508014600 | 8 | 0 | 0.0 | 0.0 | 0.00 | 0.00 | 0.00 | 71 | 1016.1 |
| 20260508013100 | 9 | 0 | 0.0 | 0.0 | 0.00 | 0.00 | 0.00 | 68 | 1015.6 |
| 20260508011609 | 10 | 0 | 0.0 | 0.0 | 0.00 | 0.00 | 0.00 | 64 | 1015.4 |
| 20260508010140 | 11 | 0 | 0.0 | 0.0 | 0.00 | 0.00 | 0.00 | 58 | 1015.3 |
| 20260508004600 | 11 | 0 | 0.0 | 0.0 | 0.00 | 0.00 | 0.00 | 56 | 1015.2 |
| 20260508003055 | 12 | 0 | 0.0 | 0.0 | 0.00 | 0.00 | 0.00 | 48 | 1015.0 |
| 20260508001557 | 13 | 0 | 0.0 | 0.0 | 0.00 | 0.00 | 0.00 | 40 | 1014.8 |
| 20260508000100 | 14 | 0 | 0.0 | 3.2 | 0.00 | 0.00 | 0.00 | 38 | 1014.9 |
| 20260507234558 | 14 | 271 | 0.0 | 3.2 | 0.00 | 0.00 | 0.00 | 38 | 1014.5 |
| 20260507233057 | 15 | 0 | 0.0 | 4.8 | 0.00 | 0.00 | 0.00 | 39 | 1014.3 |
| 20260507231558 | 15 | 352 | 3.2 | 9.7 | 0.00 | 0.00 | 0.00 | 36 | 1014.3 |
| 20260507230058 | 15 | 0 | 0.0 | 4.8 | 0.00 | 0.00 | 0.00 | 38 | 1014.3 |
| 20260507224559 | 16 | 337 | 1.6 | 11.3 | 0.00 | 0.00 | 0.00 | 37 | 1014.3 |
| 20260507223059 | 16 | 350 | 4.8 | 14.5 | 0.00 | 0.00 | 0.00 | 40 | 1014.2 |
| 20260507221555 | 16 | 53 | 3.2 | 14.5 | 0.00 | 0.00 | 0.00 | 42 | 1014.1 |
| 20260507220056 | 16 | 344 | 1.6 | 12.9 | 0.00 | 0.00 | 0.00 | 38 | 1013.9 |
| 20260507214557 | 16 | 352 | 3.2 | 8.0 | 0.00 | 0.00 | 0.00 | 41 | 1013.9 |
| 20260507213100 | 16 | 345 | 1.6 | 6.4 | 0.00 | 0.00 | 0.00 | 45 | 1013.8 |
| 20260507211600 | 16 | 333 | 4.8 | 9.7 | 0.00 | 0.00 | 0.00 | 41 | 1013.5 |
| 20260507210057 | 16 | 287 | 1.6 | 12.9 | 0.00 | 0.00 | 0.00 | 45 | 1013.5 |
| 20260507204558 | 17 | 328 | 4.8 | 12.9 | 0.00 | 0.00 | 0.00 | 44 | 1013.5 |
| 20260507203056 | 17 | 346 | 0.0 | 8.0 | 0.00 | 0.00 | 0.00 | 44 | 1013.3 |
| 20260507201608 | 17 | 17 | 3.2 | 9.7 | 0.00 | 0.00 | 0.00 | 44 | 1013.3 |
| 20260507200103 | 16 | 0 | 1.6 | 17.7 | 0.00 | 0.00 | 0.00 | 45 | 1013.3 |
| 20260507194557 | 16 | 344 | 3.2 | 12.9 | 0.00 | 0.00 | 0.00 | 46 | 1013.6 |
| 20260507193056 | 17 | 9 | 4.8 | 12.9 | 0.00 | 0.00 | 0.00 | 43 | 1013.7 |
| 20260507191600 | 16 | 27 | 0.0 | 9.7 | 0.00 | 0.00 | 0.00 | 48 | 1013.7 |
| 20260507190056 | 16 | 25 | 3.2 | 11.3 | 0.00 | 0.00 | 0.00 | 48 | 1013.9 |
| 20260507184602 | 17 | 272 | 8.0 | 12.9 | 0.00 | 0.00 | 0.00 | 43 | 1013.8 |
| 20260507183057 | 16 | 319 | 1.6 | 14.5 | 0.00 | 0.00 | 0.00 | 50 | 1014.1 |
| 20260507181555 | 16 | 14 | 4.8 | 12.9 | 0.00 | 0.00 | 0.00 | 48 | 1014.3 |
| 20260507180057 | 15 | 355 | 3.2 | 12.9 | 0.00 | 0.00 | 0.00 | 48 | 1014.1 |
| 20260507174606 | 16 | 264 | 6.4 | 16.1 | 0.00 | 0.03 | 0.00 | 48 | 1014.1 |
| 20260507173059 | 15 | 25 | 3.2 | 9.7 | 0.00 | 0.03 | 0.00 | 54 | 1014.4 |
| 20260507171604 | 16 | 221 | 3.2 | 16.1 | 0.00 | 0.03 | 0.00 | 48 | 1014.5 |